TimeCST,TemperatureF,Dew PointF,Humidity,Sea Level PressureIn,VisibilityMPH,Wind Direction,Wind SpeedMPH,Gust SpeedMPH,PrecipitationIn,Events,Conditions,WindDirDegrees,DateUTC
12:53 AM,36.0,23.0,59,30.13,10.0,SSW,9.2,-,N/A,,Mostly Cloudy,210,2012-12-31 06:53:00
1:53 AM,35.1,24.1,64,30.13,10.0,SSW,5.8,-,N/A,,Clear,210,2012-12-31 07:53:00
2:53 AM,35.1,23.0,61,30.15,10.0,WSW,6.9,-,N/A,,Overcast,240,2012-12-31 08:53:00
3:53 AM,34.0,25.0,70,30.13,10.0,Calm,Calm,-,N/A,,Scattered Clouds,0,2012-12-31 09:53:00
4:53 AM,33.1,24.1,70,30.14,10.0,NW,5.8,-,N/A,,Overcast,320,2012-12-31 10:53:00
5:53 AM,32.0,24.1,73,30.13,10.0,North,8.1,-,N/A,,Overcast,350,2012-12-31 11:53:00
6:53 AM,30.9,24.1,76,30.13,10.0,North,9.2,-,N/A,,Overcast,360,2012-12-31 12:53:00
7:53 AM,30.0,24.1,79,30.14,10.0,North,5.8,-,N/A,,Overcast,10,2012-12-31 13:53:00
8:53 AM,28.9,21.9,75,30.17,10.0,North,9.2,-,N/A,,Overcast,350,2012-12-31 14:53:00
9:36 AM,28.4,23.0,80,30.17,1.8,North,11.5,-,0.00,Snow,Light Snow,360,2012-12-31 15:36:00
9:53 AM,27.0,23.0,85,30.20,1.2,North,11.5,-,0.00,Snow,Light Snow,360,2012-12-31 15:53:00
10:53 AM,27.0,23.0,85,30.20,1.2,North,11.5,-,0.00,Snow,Light Snow,10,2012-12-31 16:53:00
11:41 AM,26.6,23.0,86,30.17,0.8,North,9.2,-,0.01,Snow,Light Snow,10,2012-12-31 17:41:00
11:53 AM,26.1,23.0,88,30.19,0.8,North,9.2,-,0.01,Snow,Light Snow,10,2012-12-31 17:53:00
12:07 PM,26.6,23.0,86,30.15,0.5,NNE,12.7,-,0.00,Fog-Snow,Snow,20,2012-12-31 18:07:00
12:18 PM,26.6,23.0,86,30.15,0.8,North,11.5,-,0.00,Snow,Light Snow,360,2012-12-31 18:18:00
12:26 PM,26.6,21.2,80,30.14,1.0,North,12.7,-,0.01,Snow,Light Snow,10,2012-12-31 18:26:00
12:45 PM,24.8,21.2,86,30.12,0.8,North,13.8,-,0.01,Snow,Light Snow,10,2012-12-31 18:45:00
12:53 PM,26.1,21.9,84,30.15,1.0,NNE,13.8,-,0.01,Snow,Light Snow,20,2012-12-31 18:53:00
1:09 PM,24.8,21.2,86,30.11,2.0,North,16.1,-,0.00,Snow,Light Snow,10,2012-12-31 19:09:00
1:22 PM,24.8,21.2,86,30.10,3.0,NNE,15.0,-,0.00,Snow,Light Snow,20,2012-12-31 19:22:00
1:31 PM,24.8,19.4,80,30.10,3.0,NNE,16.1,-,0.00,Snow,Light Snow,20,2012-12-31 19:31:00
1:53 PM,25.0,19.9,81,30.12,2.5,NNE,15.0,-,0.00,Snow,Light Snow,20,2012-12-31 19:53:00
2:31 PM,24.8,19.4,80,30.11,3.0,NNE,11.5,-,0.00,Snow,Light Snow,30,2012-12-31 20:31:00
2:49 PM,24.8,19.4,80,30.11,4.0,NE,11.5,-,0.00,Snow,Light Snow,40,2012-12-31 20:49:00
2:53 PM,25.0,19.9,81,30.14,4.0,NNE,9.2,-,0.00,Snow,Light Snow,30,2012-12-31 20:53:00
3:17 PM,24.8,19.4,80,30.11,1.8,NE,10.4,-,0.00,Snow,Light Snow,40,2012-12-31 21:17:00
3:26 PM,24.8,19.4,80,30.11,1.2,NNE,11.5,-,0.00,Snow,Light Snow,30,2012-12-31 21:26:00
3:53 PM,25.0,19.0,78,30.14,1.8,NNE,12.7,-,0.00,Snow,Light Snow,30,2012-12-31 21:53:00
4:03 PM,24.8,19.4,80,30.12,2.5,NNE,9.2,-,0.00,Snow,Light Snow,30,2012-12-31 22:03:00
4:19 PM,24.8,19.4,80,30.13,1.5,North,9.2,-,0.00,Snow,Light Snow,10,2012-12-31 22:19:00
4:53 PM,24.1,19.0,81,30.15,2.0,North,10.4,-,0.00,Snow,Light Snow,10,2012-12-31 22:53:00
5:04 PM,24.8,19.4,80,30.13,4.0,NNE,11.5,-,0.00,Snow,Light Snow,20,2012-12-31 23:04:00
5:53 PM,24.1,19.0,81,30.18,10.0,North,9.2,-,0.00,,Overcast,360,2012-12-31 23:53:00
7:28 PM,21.2,17.6,86,30.17,6.0,NNE,15.0,-,0.00,Snow,Light Snow,20,2013-01-01 01:28:00
7:42 PM,21.2,15.8,80,30.17,8.0,NNE,13.8,-,0.00,Snow,Light Snow,30,2013-01-01 01:42:00
7:53 PM,21.9,16.0,78,30.21,7.0,NNE,13.8,-,0.00,Snow,Light Snow,30,2013-01-01 01:53:00
8:53 PM,21.0,16.0,81,30.21,3.0,North,15.0,-,0.00,Snow,Light Snow,10,2013-01-01 02:53:00
9:53 PM,19.9,15.1,81,30.23,4.0,North,13.8,-,0.00,Snow,Light Snow,10,2013-01-01 03:53:00
10:53 PM,19.9,15.1,81,30.25,5.0,North,12.7,-,0.00,Snow,Light Snow,10,2013-01-01 04:53:00
11:53 PM,19.9,12.9,74,30.25,10.0,North,9.2,-,0.00,,Overcast,10,2013-01-01 05:53:00